Baker, MT

6:50 PM MST on December 17, 2017 (GMT -0700)
Baker Municipal

Weather History for KBHK - July, 2013

Change the Weather History Date:

Monday, July 1, 2013

  Actual Average Record
Temperature  
Mean Temperature 70 °F -  
Max Temperature 82 °F 99 °F 100 °F (2012)
Min Temperature 57 °F 64 °F 51 °F (1999)
Cooling Degree Days 4    
Growing Degree Days 20 (Base 50)    
Moisture  
Dew Point 53 °F    
Average Humidity 59    
Maximum Humidity 83    
Minimum Humidity 36    
Precipitation  
Precipitation 0.00 in - - ()
Sea Level Pressure  
Sea Level Pressure 30.17 in    
Wind  
Wind Speed 10 mph (SE)    
Max Wind Speed 18 mph    
Max Gust Speed 23 mph    
Visibility 10 miles    
Events      
Averages and records for this station are not official NWS values.
T = Trace of Precipitation, MM = Missing Value Source: NWS Daily Summary

Daily Weather History Graph

Daily Weather History Graph

Search for Another Location

Airport or City:

Trip Planner

Search our weather history database for the weather conditions in past years. The results will help you decide how hot, cold, wet, or windy it might be!

Date:

Astronomy

Jul. 01, 2013 Rise Set
Actual Time 5:08 AM MDT 8:52 PM MDT
Civil Twilight 4:30 AM MDT 9:31 PM MDT
Nautical Twilight 3:38 AM MDT 10:23 PM MDT
Astronomical Twilight 2:25 AM MDT 11:35 PM MDT
Moon 12:53 AM MDT (7/1) 2:58 PM MDT (7/1)
Length of Visible Light 17h 01m
Length of Day
15h 43m
Waning Crescent, 35% of the Moon is Illuminated
Jul 1
Waning Crescent
Jul 8
New
Jul 15
First Quarter
Jul 22
Full
Jul 29
Last Quarter

Hourly Weather History & Observations

Time (MDT) Temp. Heat Index Dew Point Humidity Pressure Visibility Wind Dir Wind Speed Gust Speed Precip Events Conditions
12:51 AM 59.0 °F - 53.1 °F 81% 30.19 in 10.0 mi ESE 6.9 mph - N/A   Clear
1:51 AM 57.9 °F - 52.0 °F 81% 30.19 in 10.0 mi ESE 6.9 mph - N/A   Clear
2:51 AM 57.9 °F - 52.0 °F 81% 30.19 in 10.0 mi ESE 8.1 mph - N/A   Clear
3:51 AM 57.9 °F - 52.0 °F 81% 30.18 in 10.0 mi SE 9.2 mph - N/A   Clear
4:51 AM 57.0 °F - 52.0 °F 83% 30.19 in 10.0 mi SE 9.2 mph - N/A   Clear
5:51 AM 57.0 °F - 52.0 °F 83% 30.20 in 10.0 mi ESE 8.1 mph - N/A   Clear
6:51 AM 62.1 °F - 53.1 °F 72% 30.20 in 10.0 mi SE 11.5 mph - N/A   Clear
7:51 AM 64.9 °F - 54.0 °F 68% 30.20 in 10.0 mi SE 18.4 mph 23.0 mph N/A   Clear
8:51 AM 70.0 °F - 55.0 °F 59% 30.20 in 10.0 mi SE 18.4 mph - N/A   Clear
9:51 AM 73.9 °F - 55.9 °F 53% 30.19 in 10.0 mi SE 17.3 mph 23.0 mph N/A   Clear
10:51 AM 75.9 °F - 55.9 °F 50% 30.19 in 10.0 mi SSE 13.8 mph - N/A   Clear
11:51 AM 78.1 °F - 55.9 °F 46% 30.19 in 10.0 mi SSE 15.0 mph - N/A   Partly Cloudy
12:51 PM 80.1 °F 80.0 °F 54.0 °F 40% 30.18 in 10.0 mi SSE 11.5 mph - N/A   Partly Cloudy
1:51 PM 81.0 °F 80.4 °F 53.1 °F 38% 30.17 in 10.0 mi South 13.8 mph 17.3 mph N/A   Partly Cloudy
2:51 PM 81.0 °F - 52.0 °F 36% 30.16 in 10.0 mi SE 6.9 mph - N/A   Partly Cloudy
3:51 PM 80.1 °F - 51.1 °F 36% 30.16 in 10.0 mi SE 9.2 mph - N/A   Mostly Cloudy
4:51 PM 82.0 °F 81.3 °F 54.0 °F 38% 30.15 in 10.0 mi ESE 11.5 mph 20.7 mph N/A   Clear
5:51 PM 81.0 °F 80.4 °F 53.1 °F 38% 30.14 in 10.0 mi ESE 12.7 mph - N/A   Clear
6:51 PM 79.0 °F - 53.1 °F 40% 30.14 in 10.0 mi ESE 13.8 mph - N/A   Clear
7:51 PM 75.9 °F - 53.1 °F 45% 30.14 in 10.0 mi ESE 11.5 mph - N/A   Clear
8:51 PM 70.0 °F - 54.0 °F 57% 30.14 in 10.0 mi ESE 10.4 mph - N/A   Clear
9:51 PM 64.9 °F - 54.0 °F 68% 30.16 in 10.0 mi ESE 5.8 mph - N/A   Clear
10:51 PM 63.0 °F - 53.1 °F 70% 30.16 in 10.0 mi ESE 4.6 mph - N/A   Clear
11:51 PM 61.0 °F - 53.1 °F 75% 30.16 in 10.0 mi East 5.8 mph - N/A   Clear